| time (UTC) | temp F | wind direction | speed MPH | gust MPH | rain 1hr in | rain 24hr in | rain mn in | humidity % | barometer mb |
| 20260510214046 | 64 | 109 | 1.0 | 5.0 | 0.00 | 0.00 | 0.00 | 63 | 1019.3 |
| 20260510213550 | 63 | 315 | 0.0 | 7.0 | 0.00 | 0.00 | 0.00 | 64 | 1019.3 |
| 20260510213101 | 62 | 0 | 1.0 | 7.0 | 0.00 | 0.00 | 0.00 | 67 | 1019.4 |
| 20260510212548 | 61 | 298 | 1.0 | 8.0 | 0.00 | 0.00 | 0.00 | 68 | 1019.5 |
| 20260510212048 | 62 | 293 | 2.0 | 8.0 | 0.00 | 0.00 | 0.00 | 67 | 1019.5 |
| 20260510211631 | 62 | 0 | 2.0 | 8.0 | 0.00 | 0.00 | 0.00 | 65 | 1019.4 |
| 20260510211048 | 62 | 293 | 3.0 | 8.0 | 0.00 | 0.00 | 0.00 | 65 | 1019.4 |
| 20260510210548 | 62 | 274 | 3.0 | 8.0 | 0.00 | 0.00 | 0.00 | 66 | 1019.4 |
| 20260510210054 | 61 | 326 | 1.0 | 9.0 | 0.00 | 0.00 | 0.00 | 65 | 1019.4 |
| 20260510205549 | 61 | 284 | 4.0 | 9.0 | 0.00 | 0.00 | 0.00 | 65 | 1019.5 |
| 20260510205047 | 61 | 301 | 3.0 | 10.0 | 0.00 | 0.00 | 0.00 | 65 | 1019.2 |
| 20260510204552 | 61 | 259 | 3.0 | 10.0 | 0.00 | 0.00 | 0.00 | 66 | 1019.2 |
| 20260510204046 | 62 | 26 | 3.0 | 8.0 | 0.00 | 0.00 | 0.00 | 63 | 1019.1 |
| 20260510203548 | 62 | 28 | 2.0 | 9.0 | 0.00 | 0.00 | 0.00 | 66 | 1019.1 |
| 20260510203051 | 61 | 306 | 3.0 | 9.0 | 0.00 | 0.00 | 0.00 | 68 | 1019.2 |
| 20260510202547 | 62 | 279 | 3.0 | 8.0 | 0.00 | 0.00 | 0.00 | 65 | 1019.1 |
| 20260510202047 | 62 | 335 | 3.0 | 9.0 | 0.00 | 0.00 | 0.00 | 66 | 1018.9 |
| 20260510201556 | 63 | 200 | 3.0 | 10.0 | 0.00 | 0.00 | 0.00 | 65 | 1018.8 |
| 20260510201045 | 62 | 324 | 3.0 | 10.0 | 0.00 | 0.00 | 0.00 | 66 | 1018.9 |
| 20260510200547 | 61 | 313 | 2.0 | 6.0 | 0.00 | 0.00 | 0.00 | 69 | 1018.9 |
| 20260510200057 | 62 | 232 | 2.0 | 5.0 | 0.00 | 0.00 | 0.00 | 67 | 1018.8 |
| 20260510195546 | 62 | 0 | 0.0 | 7.0 | 0.00 | 0.00 | 0.00 | 66 | 1018.8 |
| 20260510195047 | 61 | 0 | 2.0 | 8.0 | 0.00 | 0.00 | 0.00 | 67 | 1018.8 |
| 20260510194600 | 61 | 279 | 2.0 | 8.0 | 0.00 | 0.00 | 0.00 | 69 | 1018.8 |
| 20260510194047 | 60 | 295 | 1.0 | 8.0 | 0.00 | 0.00 | 0.00 | 70 | 1018.9 |
| 20260510193545 | 60 | 307 | 2.0 | 8.0 | 0.00 | 0.00 | 0.00 | 70 | 1018.8 |
| 20260510193056 | 59 | 295 | 1.0 | 5.0 | 0.00 | 0.00 | 0.00 | 71 | 1018.9 |
| 20260510192548 | 59 | 314 | 1.0 | 7.0 | 0.00 | 0.00 | 0.00 | 71 | 1018.9 |
| 20260510192046 | 60 | 222 | 1.0 | 7.0 | 0.00 | 0.00 | 0.00 | 70 | 1018.9 |
| 20260510191615 | 60 | 250 | 0.0 | 7.0 | 0.00 | 0.00 | 0.00 | 69 | 1018.9 |
| 20260510191046 | 60 | 291 | 3.0 | 7.0 | 0.00 | 0.00 | 0.00 | 70 | 1018.9 |
| 20260510190547 | 59 | 0 | 1.0 | 4.0 | 0.00 | 0.00 | 0.00 | 71 | 1018.7 |
| 20260510190108 | 59 | 296 | 1.0 | 4.0 | 0.00 | 0.00 | 0.00 | 71 | 1018.7 |
| 20260510185547 | 59 | 0 | 0.0 | 3.0 | 0.00 | 0.00 | 0.00 | 71 | 1018.5 |
| 20260510185046 | 58 | 0 | 1.0 | 4.0 | 0.00 | 0.00 | 0.00 | 72 | 1018.7 |
| 20260510184551 | 58 | 0 | 1.0 | 4.0 | 0.00 | 0.00 | 0.00 | 74 | 1018.7 |
| 20260510184049 | 58 | 0 | 0.0 | 3.0 | 0.00 | 0.00 | 0.00 | 72 | 1018.6 |
| 20260510183548 | 58 | 17 | 0.0 | 3.0 | 0.00 | 0.00 | 0.00 | 75 | 1018.8 |
| 20260510183106 | 57 | 0 | 1.0 | 4.0 | 0.00 | 0.00 | 0.00 | 76 | 1018.8 |
| 20260510182549 | 57 | 13 | 0.0 | 4.0 | 0.00 | 0.00 | 0.00 | 76 | 1018.7 |
| 20260510182048 | 57 | 233 | 0.0 | 3.0 | 0.00 | 0.00 | 0.00 | 77 | 1018.6 |
| 20260510181557 | 57 | 223 | 0.0 | 4.0 | 0.00 | 0.00 | 0.00 | 76 | 1018.6 |
| 20260510181049 | 56 | 0 | 1.0 | 4.0 | 0.00 | 0.00 | 0.00 | 77 | 1018.6 |
| 20260510180549 | 56 | 315 | 0.0 | 5.0 | 0.00 | 0.00 | 0.00 | 77 | 1018.6 |
| 20260510180109 | 56 | 300 | 1.0 | 5.0 | 0.00 | 0.00 | 0.00 | 76 | 1018.6 |
| 20260510175549 | 56 | 313 | 1.0 | 5.0 | 0.00 | 0.00 | 0.00 | 76 | 1018.5 |
| 20260510175047 | 56 | 21 | 2.0 | 6.0 | 0.00 | 0.00 | 0.00 | 76 | 1018.4 |
| 20260510174606 | 56 | 352 | 2.0 | 6.0 | 0.00 | 0.00 | 0.00 | 77 | 1018.2 |
| 20260510174047 | 56 | 0 | 1.0 | 6.0 | 0.00 | 0.00 | 0.00 | 76 | 1018.2 |
| 20260510173547 | 57 | 0 | 1.0 | 6.0 | 0.00 | 0.00 | 0.00 | 76 | 1018.4 |
| 20260510173101 | 57 | 0 | 0.0 | 7.0 | 0.00 | 0.00 | 0.00 | 76 | 1018.6 |
| 20260510172549 | 56 | 267 | 1.0 | 9.0 | 0.00 | 0.00 | 0.00 | 78 | 1018.6 |
| 20260510172047 | 55 | 193 | 2.0 | 9.0 | 0.00 | 0.00 | 0.00 | 78 | 1018.6 |
| 20260510171557 | 55 | 0 | 3.0 | 9.0 | 0.00 | 0.00 | 0.00 | 78 | 1018.5 |
| 20260510171047 | 56 | 322 | 2.0 | 7.0 | 0.00 | 0.00 | 0.00 | 78 | 1018.4 |
| 20260510170548 | 55 | 344 | 2.0 | 7.0 | 0.00 | 0.00 | 0.00 | 78 | 1018.3 |
| 20260510170115 | 56 | 30 | 2.0 | 5.0 | 0.00 | 0.00 | 0.00 | 78 | 1018.2 |
| 20260510165547 | 56 | 329 | 2.0 | 8.0 | 0.00 | 0.00 | 0.00 | 78 | 1018.1 |
| 20260510165047 | 55 | 0 | 2.0 | 8.0 | 0.00 | 0.00 | 0.00 | 79 | 1017.9 |
| 20260510164618 | 55 | 5 | 0.0 | 5.0 | 0.00 | 0.00 | 0.00 | 79 | 1018.0 |
| 20260510164046 | 55 | 193 | 0.0 | 5.0 | 0.00 | 0.00 | 0.00 | 78 | 1018.1 |
| 20260510163548 | 55 | 0 | 1.0 | 5.0 | 0.00 | 0.00 | 0.00 | 78 | 1017.9 |
| 20260510163059 | 54 | 0 | 0.0 | 2.0 | 0.00 | 0.00 | 0.00 | 80 | 1018.0 |
| 20260510162547 | 54 | 0 | 0.0 | 2.0 | 0.00 | 0.00 | 0.00 | 81 | 1017.9 |
| 20260510162043 | 54 | 0 | 0.0 | 2.0 | 0.00 | 0.00 | 0.00 | 82 | 1017.7 |
| 20260510161554 | 54 | 0 | 0.0 | 2.0 | 0.00 | 0.00 | 0.00 | 82 | 1017.6 |
| 20260510161046 | 53 | 0 | 0.0 | 2.0 | 0.00 | 0.00 | 0.00 | 84 | 1017.5 |
| 20260510160543 | 53 | 0 | 0.0 | 1.0 | 0.00 | 0.00 | 0.00 | 86 | 1017.4 |
| 20260510155545 | 53 | 0 | 0.0 | 2.0 | 0.00 | 0.00 | 0.00 | 85 | 1017.6 |
| 20260510155047 | 53 | 341 | 0.0 | 1.0 | 0.00 | 0.00 | 0.00 | 86 | 1017.6 |
| 20260510154604 | 53 | 0 | 0.0 | 2.0 | 0.00 | 0.00 | 0.00 | 86 | 1017.4 |
| 20260510154047 | 53 | 0 | 0.0 | 2.0 | 0.00 | 0.00 | 0.00 | 86 | 1017.7 |
| 20260510153546 | 53 | 347 | 0.0 | 2.0 | 0.00 | 0.00 | 0.00 | 87 | 1017.6 |
| 20260510153054 | 53 | 0 | 0.0 | 3.0 | 0.00 | 0.00 | 0.00 | 88 | 1017.5 |
| 20260510152550 | 52 | 0 | 0.0 | 3.0 | 0.00 | 0.00 | 0.00 | 88 | 1017.5 |
| 20260510152044 | 52 | 0 | 0.0 | 3.0 | 0.00 | 0.00 | 0.00 | 90 | 1017.3 |
| 20260510151550 | 52 | 0 | 0.0 | 3.0 | 0.00 | 0.00 | 0.00 | 91 | 1017.2 |
| 20260510151045 | 52 | 0 | 0.0 | 1.0 | 0.00 | 0.00 | 0.00 | 92 | 1017.3 |
| 20260510150547 | 52 | 0 | 0.0 | 1.0 | 0.00 | 0.00 | 0.00 | 92 | 1017.4 |
| 20260510150052 | 51 | 0 | 0.0 | 1.0 | 0.00 | 0.00 | 0.00 | 93 | 1017.5 |
| 20260510145546 | 51 | 0 | 0.0 | 1.0 | 0.00 | 0.00 | 0.00 | 93 | 1017.6 |
| 20260510145043 | 51 | 0 | 0.0 | 0.0 | 0.00 | 0.00 | 0.00 | 94 | 1017.4 |
| 20260510144604 | 51 | 0 | 0.0 | 0.0 | 0.00 | 0.00 | 0.00 | 94 | 1017.5 |
| 20260510144043 | 50 | 0 | 0.0 | 1.0 | 0.00 | 0.00 | 0.00 | 94 | 1017.5 |
| 20260510143545 | 50 | 0 | 0.0 | 2.0 | 0.00 | 0.00 | 0.00 | 94 | 1017.7 |
| 20260510143053 | 50 | 0 | 0.0 | 2.0 | 0.00 | 0.00 | 0.00 | 95 | 1017.6 |
| 20260510142548 | 50 | 0 | 0.0 | 0.0 | 0.00 | 0.00 | 0.00 | 95 | 1017.3 |
| 20260510142045 | 50 | 0 | 0.0 | 1.0 | 0.00 | 0.00 | 0.00 | 95 | 1017.3 |
| 20260510141553 | 49 | 0 | 0.0 | 1.0 | 0.00 | 0.00 | 0.00 | 95 | 1017.2 |
| 20260510141046 | 49 | 0 | 0.0 | 1.0 | 0.00 | 0.00 | 0.00 | 96 | 1017.4 |
| 20260510140552 | 49 | 40 | 0.0 | 1.0 | 0.00 | 0.00 | 0.00 | 96 | 1017.5 |
| 20260510140052 | 48 | 0 | 0.0 | 0.0 | 0.00 | 0.00 | 0.00 | 95 | 1017.2 |
| 20260510135547 | 48 | 0 | 0.0 | 0.0 | 0.00 | 0.00 | 0.00 | 95 | 1017.0 |
| 20260510135047 | 48 | 0 | 0.0 | 0.0 | 0.00 | 0.00 | 0.00 | 95 | 1017.2 |
| 20260510134600 | 47 | 0 | 0.0 | 0.0 | 0.00 | 0.00 | 0.00 | 95 | 1017.4 |
| 20260510134047 | 47 | 0 | 0.0 | 0.0 | 0.00 | 0.00 | 0.00 | 95 | 1017.3 |
| 20260510133544 | 47 | 0 | 0.0 | 0.0 | 0.00 | 0.00 | 0.00 | 95 | 1017.2 |
| 20260510133056 | 47 | 0 | 0.0 | 2.0 | 0.00 | 0.00 | 0.00 | 95 | 1017.3 |
| 20260510132546 | 47 | 0 | 0.0 | 2.0 | 0.00 | 0.00 | 0.00 | 95 | 1017.3 |
| 20260510132049 | 47 | 0 | 0.0 | 0.0 | 0.00 | 0.00 | 0.00 | 95 | 1017.3 |
| 20260510131555 | 47 | 0 | 0.0 | 0.0 | 0.00 | 0.00 | 0.00 | 99 | 1017.2 |
| 20260510131046 | 47 | 0 | 0.0 | 0.0 | 0.00 | 0.00 | 0.00 | 95 | 1017.1 |
| 20260510130545 | 47 | 0 | 0.0 | 0.0 | 0.00 | 0.00 | 0.00 | 95 | 1017.0 |
| 20260510130057 | 46 | 0 | 0.0 | 0.0 | 0.00 | 0.00 | 0.00 | 94 | 1017.0 |
| 20260510125546 | 46 | 0 | 0.0 | 0.0 | 0.00 | 0.00 | 0.00 | 95 | 1017.0 |
| 20260510125047 | 46 | 0 | 0.0 | 0.0 | 0.00 | 0.00 | 0.00 | 94 | 1017.0 |
| 20260510124612 | 46 | 0 | 0.0 | 0.0 | 0.00 | 0.00 | 0.00 | 94 | 1016.9 |
| 20260510124047 | 46 | 0 | 0.0 | 0.0 | 0.00 | 0.00 | 0.00 | 94 | 1016.9 |
| 20260510123544 | 46 | 0 | 0.0 | 0.0 | 0.00 | 0.00 | 0.00 | 94 | 1017.0 |
| 20260510123055 | 46 | 0 | 0.0 | 0.0 | 0.00 | 0.00 | 0.00 | 94 | 1017.1 |
| 20260510122546 | 46 | 0 | 0.0 | 0.0 | 0.00 | 0.00 | 0.00 | 94 | 1017.1 |
| 20260510122047 | 46 | 0 | 0.0 | 0.0 | 0.00 | 0.00 | 0.00 | 94 | 1017.2 |
| 20260510121554 | 46 | 0 | 0.0 | 0.0 | 0.00 | 0.00 | 0.00 | 94 | 1017.1 |
| 20260510121047 | 47 | 0 | 0.0 | 0.0 | 0.00 | 0.00 | 0.00 | 94 | 1017.1 |
| 20260510120546 | 47 | 0 | 0.0 | 0.0 | 0.00 | 0.00 | 0.00 | 94 | 1017.1 |
| 20260510120105 | 47 | 0 | 0.0 | 0.0 | 0.00 | 0.00 | 0.00 | 93 | 1017.1 |
| 20260510115546 | 47 | 0 | 0.0 | 0.0 | 0.00 | 0.00 | 0.00 | 93 | 1017.2 |
| 20260510115046 | 47 | 0 | 0.0 | 0.0 | 0.00 | 0.00 | 0.00 | 93 | 1017.0 |
| 20260510114556 | 47 | 0 | 0.0 | 0.0 | 0.00 | 0.00 | 0.00 | 93 | 1017.1 |
| 20260510114046 | 47 | 0 | 0.0 | 0.0 | 0.00 | 0.00 | 0.00 | 93 | 1016.9 |
| 20260510113545 | 47 | 0 | 0.0 | 0.0 | 0.00 | 0.00 | 0.00 | 93 | 1017.0 |
| 20260510113055 | 47 | 0 | 0.0 | 0.0 | 0.00 | 0.00 | 0.00 | 93 | 1016.8 |
| 20260510112544 | 47 | 0 | 0.0 | 0.0 | 0.00 | 0.00 | 0.00 | 93 | 1016.9 |
| 20260510112046 | 48 | 0 | 0.0 | 0.0 | 0.00 | 0.00 | 0.00 | 93 | 1016.8 |
| 20260510111558 | 48 | 0 | 0.0 | 0.0 | 0.00 | 0.00 | 0.00 | 93 | 1016.8 |
| 20260510111045 | 48 | 0 | 0.0 | 0.0 | 0.00 | 0.00 | 0.00 | 93 | 1016.8 |
| 20260510110547 | 48 | 0 | 0.0 | 0.0 | 0.00 | 0.00 | 0.00 | 92 | 1016.7 |
| 20260510110056 | 48 | 0 | 0.0 | 0.0 | 0.00 | 0.00 | 0.00 | 92 | 1016.6 |
| 20260510105547 | 48 | 0 | 0.0 | 1.0 | 0.00 | 0.00 | 0.00 | 92 | 1016.7 |
| 20260510105047 | 48 | 0 | 0.0 | 1.0 | 0.00 | 0.00 | 0.00 | 92 | 1016.8 |
| 20260510104603 | 49 | 0 | 0.0 | 1.0 | 0.00 | 0.00 | 0.00 | 92 | 1016.9 |
| 20260510104047 | 49 | 0 | 0.0 | 0.0 | 0.00 | 0.00 | 0.00 | 92 | 1016.9 |
| 20260510103546 | 49 | 0 | 0.0 | 0.0 | 0.00 | 0.00 | 0.00 | 92 | 1016.8 |
| 20260510103052 | 49 | 0 | 0.0 | 0.0 | 0.00 | 0.00 | 0.00 | 92 | 1016.8 |
| 20260510102548 | 49 | 0 | 0.0 | 0.0 | 0.00 | 0.00 | 0.00 | 91 | 1016.9 |
| 20260510102048 | 49 | 0 | 0.0 | 1.0 | 0.00 | 0.00 | 0.00 | 91 | 1016.8 |
| 20260510101551 | 50 | 0 | 0.0 | 2.0 | 0.00 | 0.00 | 0.00 | 91 | 1016.9 |
| 20260510101045 | 50 | 0 | 0.0 | 2.0 | 0.00 | 0.00 | 0.00 | 91 | 1016.9 |
| 20260510100546 | 50 | 0 | 0.0 | 3.0 | 0.00 | 0.00 | 0.00 | 91 | 1016.8 |
| 20260510100052 | 50 | 0 | 0.0 | 3.0 | 0.00 | 0.00 | 0.00 | 91 | 1016.8 |
| 20260510095546 | 50 | 0 | 0.0 | 3.0 | 0.00 | 0.00 | 0.00 | 91 | 1016.7 |
| 20260510095046 | 50 | 35 | 0.0 | 3.0 | 0.00 | 0.00 | 0.00 | 91 | 1016.8 |
| 20260510094601 | 50 | 34 | 0.0 | 2.0 | 0.00 | 0.00 | 0.00 | 90 | 1016.7 |
| 20260510094049 | 50 | 0 | 0.0 | 3.0 | 0.00 | 0.00 | 0.00 | 90 | 1016.7 |
| 20260510093544 | 50 | 0 | 0.0 | 4.0 | 0.00 | 0.00 | 0.00 | 90 | 1016.6 |
| 20260510093112 | 51 | 0 | 0.0 | 4.0 | 0.00 | 0.00 | 0.00 | 90 | 1016.6 |
| 20260510092547 | 51 | 34 | 0.0 | 4.0 | 0.00 | 0.00 | 0.00 | 90 | 1016.5 |
| 20260510092044 | 51 | 49 | 1.0 | 4.0 | 0.00 | 0.00 | 0.00 | 90 | 1016.5 |
| 20260510091553 | 51 | 0 | 0.0 | 3.0 | 0.00 | 0.00 | 0.00 | 90 | 1016.6 |
| 20260510091048 | 51 | 0 | 0.0 | 1.0 | 0.00 | 0.00 | 0.00 | 89 | 1016.5 |
| 20260510090548 | 51 | 0 | 0.0 | 3.0 | 0.00 | 0.00 | 0.00 | 89 | 1016.6 |
| 20260510090049 | 51 | 0 | 0.0 | 3.0 | 0.00 | 0.00 | 0.00 | 89 | 1016.5 |
| 20260510085548 | 51 | 360 | 0.0 | 4.0 | 0.00 | 0.00 | 0.00 | 89 | 1016.5 |
| 20260510085046 | 51 | 9 | 0.0 | 4.0 | 0.00 | 0.00 | 0.00 | 89 | 1016.4 |
| 20260510084600 | 51 | 0 | 0.0 | 4.0 | 0.00 | 0.00 | 0.00 | 89 | 1016.4 |
| 20260510084049 | 51 | 0 | 0.0 | 1.0 | 0.00 | 0.00 | 0.00 | 89 | 1016.5 |
| 20260510083545 | 51 | 0 | 0.0 | 1.0 | 0.00 | 0.00 | 0.00 | 88 | 1016.4 |
| 20260510083057 | 51 | 326 | 0.0 | 1.0 | 0.00 | 0.00 | 0.00 | 88 | 1016.5 |
| 20260510082547 | 51 | 0 | 0.0 | 1.0 | 0.00 | 0.00 | 0.00 | 88 | 1016.3 |
| 20260510082045 | 51 | 0 | 0.0 | 1.0 | 0.00 | 0.00 | 0.00 | 89 | 1016.3 |
| 20260510081556 | 51 | 0 | 0.0 | 1.0 | 0.00 | 0.00 | 0.00 | 88 | 1016.3 |
| 20260510081049 | 52 | 0 | 0.0 | 1.0 | 0.00 | 0.00 | 0.00 | 88 | 1016.4 |
| 20260510080546 | 52 | 0 | 0.0 | 2.0 | 0.00 | 0.00 | 0.00 | 88 | 1016.5 |
| 20260510080052 | 52 | 0 | 0.0 | 2.0 | 0.00 | 0.00 | 0.00 | 89 | 1016.4 |
| 20260510075546 | 52 | 0 | 0.0 | 2.0 | 0.00 | 0.00 | 0.00 | 89 | 1016.3 |
| 20260510075048 | 52 | 325 | 0.0 | 2.0 | 0.00 | 0.00 | 0.00 | 89 | 1016.2 |
| 20260510074550 | 52 | 0 | 0.0 | 2.0 | 0.00 | 0.00 | 0.00 | 90 | 1016.2 |
| 20260510074046 | 52 | 0 | 0.0 | 2.0 | 0.00 | 0.00 | 0.00 | 90 | 1016.3 |
| 20260510073547 | 52 | 0 | 0.0 | 1.0 | 0.00 | 0.00 | 0.00 | 90 | 1016.3 |
| 20260510073055 | 52 | 0 | 0.0 | 1.0 | 0.00 | 0.00 | 0.00 | 90 | 1016.2 |
| 20260510072547 | 52 | 0 | 0.0 | 1.0 | 0.00 | 0.00 | 0.00 | 90 | 1016.2 |
| 20260510072046 | 52 | 0 | 0.0 | 1.0 | 0.00 | 0.00 | 0.00 | 90 | 1016.1 |
| 20260510071554 | 51 | 0 | 0.0 | 0.0 | 0.00 | 0.00 | 0.00 | 90 | 1016.0 |
| 20260510071046 | 51 | 0 | 0.0 | 0.0 | 0.00 | 0.00 | 0.00 | 90 | 1016.2 |
| 20260510070547 | 51 | 0 | 0.0 | 0.0 | 0.00 | 0.00 | 0.00 | 90 | 1016.0 |
| 20260510070053 | 52 | 0 | 0.0 | 0.0 | 0.00 | 0.00 | 0.00 | 89 | 1015.9 |
| 20260510065546 | 52 | 0 | 0.0 | 0.0 | 0.00 | 0.00 | 0.00 | 89 | 1016.0 |
| 20260510065046 | 52 | 0 | 0.0 | 0.0 | 0.00 | 0.00 | 0.00 | 89 | 1015.9 |
| 20260510064549 | 52 | 0 | 0.0 | 0.0 | 0.00 | 0.00 | 0.00 | 89 | 1015.9 |
| 20260510064045 | 52 | 0 | 0.0 | 0.0 | 0.00 | 0.00 | 0.00 | 89 | 1015.9 |
| 20260510063548 | 52 | 0 | 0.0 | 0.0 | 0.00 | 0.00 | 0.00 | 88 | 1015.9 |
| 20260510063051 | 53 | 0 | 0.0 | 0.0 | 0.00 | 0.00 | 0.00 | 88 | 1016.0 |
| 20260510062547 | 53 | 0 | 0.0 | 0.0 | 0.00 | 0.00 | 0.00 | 88 | 1016.1 |
| 20260510062047 | 53 | 0 | 0.0 | 0.0 | 0.00 | 0.00 | 0.00 | 88 | 1016.2 |
| 20260510061549 | 53 | 0 | 0.0 | 0.0 | 0.00 | 0.00 | 0.00 | 88 | 1016.1 |
| 20260510061047 | 53 | 0 | 0.0 | 0.0 | 0.00 | 0.00 | 0.00 | 87 | 1016.0 |
| 20260510060547 | 53 | 0 | 0.0 | 0.0 | 0.00 | 0.00 | 0.00 | 87 | 1016.0 |
| 20260510060053 | 54 | 0 | 0.0 | 0.0 | 0.00 | 0.00 | 0.00 | 87 | 1016.0 |
| 20260510055546 | 54 | 0 | 0.0 | 0.0 | 0.00 | 0.00 | 0.00 | 87 | 1016.0 |
| 20260510055046 | 54 | 0 | 0.0 | 0.0 | 0.00 | 0.00 | 0.00 | 88 | 1015.9 |
| 20260510054551 | 54 | 0 | 0.0 | 0.0 | 0.00 | 0.00 | 0.00 | 86 | 1016.0 |
| 20260510054046 | 54 | 0 | 0.0 | 0.0 | 0.00 | 0.00 | 0.00 | 85 | 1015.9 |
| 20260510053545 | 54 | 0 | 0.0 | 0.0 | 0.00 | 0.00 | 0.00 | 85 | 1016.0 |
| 20260510053100 | 55 | 0 | 0.0 | 0.0 | 0.00 | 0.00 | 0.00 | 85 | 1016.0 |
| 20260510052542 | 55 | 0 | 0.0 | 1.0 | 0.00 | 0.00 | 0.00 | 84 | 1016.0 |
| 20260510052047 | 55 | 0 | 0.0 | 1.0 | 0.00 | 0.00 | 0.00 | 84 | 1016.0 |
| 20260510051550 | 55 | 0 | 0.0 | 0.0 | 0.00 | 0.00 | 0.00 | 83 | 1016.2 |
| 20260510051046 | 55 | 0 | 0.0 | 0.0 | 0.00 | 0.00 | 0.00 | 83 | 1016.2 |
| 20260510050550 | 56 | 0 | 0.0 | 0.0 | 0.00 | 0.00 | 0.00 | 83 | 1016.2 |
| 20260510050052 | 56 | 0 | 0.0 | 0.0 | 0.00 | 0.00 | 0.00 | 82 | 1016.1 |
| 20260510045547 | 56 | 0 | 0.0 | 0.0 | 0.00 | 0.00 | 0.00 | 82 | 1016.0 |
| 20260510045047 | 56 | 0 | 0.0 | 0.0 | 0.00 | 0.00 | 0.00 | 82 | 1016.1 |
| 20260510044551 | 56 | 0 | 0.0 | 0.0 | 0.00 | 0.00 | 0.00 | 81 | 1016.1 |
| 20260510044046 | 57 | 0 | 0.0 | 0.0 | 0.00 | 0.00 | 0.00 | 81 | 1016.1 |
| 20260510043548 | 57 | 0 | 0.0 | 0.0 | 0.00 | 0.00 | 0.00 | 80 | 1016.0 |
| 20260510043100 | 57 | 0 | 0.0 | 0.0 | 0.00 | 0.00 | 0.00 | 79 | 1016.0 |
| 20260510042547 | 58 | 0 | 0.0 | 1.0 | 0.00 | 0.00 | 0.00 | 79 | 1015.8 |
| 20260510042050 | 58 | 0 | 0.0 | 1.0 | 0.00 | 0.00 | 0.00 | 78 | 1015.8 |
| 20260510041550 | 58 | 0 | 0.0 | 0.0 | 0.00 | 0.00 | 0.00 | 78 | 1015.9 |
| 20260510041046 | 59 | 0 | 0.0 | 0.0 | 0.00 | 0.00 | 0.00 | 77 | 1015.8 |
| 20260510040546 | 59 | 0 | 0.0 | 0.0 | 0.00 | 0.00 | 0.00 | 76 | 1015.9 |
| 20260510040052 | 60 | 0 | 0.0 | 0.0 | 0.00 | 0.00 | 0.00 | 75 | 1015.9 |
| 20260510035546 | 61 | 0 | 0.0 | 1.0 | 0.00 | 0.00 | 0.00 | 72 | 1015.8 |
| 20260510035047 | 61 | 0 | 0.0 | 1.0 | 0.00 | 0.00 | 0.00 | 71 | 1015.8 |
| 20260510034554 | 62 | 0 | 0.0 | 1.0 | 0.00 | 0.00 | 0.00 | 71 | 1015.8 |
| 20260510034046 | 62 | 0 | 0.0 | 0.0 | 0.00 | 0.00 | 0.00 | 71 | 1015.8 |
| 20260510033549 | 62 | 0 | 0.0 | 0.0 | 0.00 | 0.00 | 0.00 | 71 | 1015.8 |
| 20260510033101 | 63 | 0 | 0.0 | 0.0 | 0.00 | 0.00 | 0.00 | 71 | 1015.7 |
| 20260510032547 | 63 | 0 | 0.0 | 0.0 | 0.00 | 0.00 | 0.00 | 71 | 1015.7 |
| 20260510032047 | 63 | 0 | 0.0 | 0.0 | 0.00 | 0.00 | 0.00 | 71 | 1015.7 |
| 20260510031553 | 64 | 0 | 0.0 | 0.0 | 0.00 | 0.00 | 0.00 | 72 | 1015.6 |
| 20260510031046 | 64 | 0 | 0.0 | 0.0 | 0.00 | 0.00 | 0.00 | 71 | 1015.6 |
| 20260510030546 | 64 | 0 | 0.0 | 0.0 | 0.00 | 0.00 | 0.00 | 70 | 1015.7 |
| 20260510030056 | 65 | 0 | 0.0 | 1.0 | 0.00 | 0.00 | 0.00 | 70 | 1015.6 |
| 20260510025546 | 65 | 0 | 0.0 | 1.0 | 0.00 | 0.00 | 0.00 | 69 | 1015.7 |
| 20260510025046 | 64 | 325 | 0.0 | 2.0 | 0.00 | 0.00 | 0.00 | 65 | 1015.8 |
| 20260510024557 | 64 | 0 | 0.0 | 2.0 | 0.00 | 0.00 | 0.00 | 67 | 1015.9 |
| 20260510024045 | 64 | 0 | 0.0 | 2.0 | 0.00 | 0.00 | 0.00 | 67 | 1016.0 |
| 20260510023545 | 65 | 0 | 0.0 | 1.0 | 0.00 | 0.00 | 0.00 | 67 | 1015.9 |
| 20260510023051 | 65 | 0 | 0.0 | 1.0 | 0.00 | 0.00 | 0.00 | 66 | 1015.8 |
| 20260510022546 | 65 | 0 | 0.0 | 2.0 | 0.00 | 0.00 | 0.00 | 67 | 1015.9 |
| 20260510022046 | 64 | 0 | 0.0 | 2.0 | 0.00 | 0.00 | 0.00 | 66 | 1016.1 |
| 20260510021554 | 64 | 0 | 0.0 | 2.0 | 0.00 | 0.00 | 0.00 | 66 | 1016.2 |
| 20260510021046 | 64 | 322 | 0.0 | 3.0 | 0.00 | 0.00 | 0.00 | 66 | 1016.2 |
| 20260510020547 | 64 | 0 | 0.0 | 4.0 | 0.00 | 0.00 | 0.00 | 66 | 1016.4 |
| 20260510020054 | 64 | 350 | 1.0 | 6.0 | 0.00 | 0.00 | 0.00 | 66 | 1016.4 |
| 20260510015546 | 64 | 330 | 1.0 | 6.0 | 0.00 | 0.00 | 0.00 | 65 | 1016.4 |
| 20260510015046 | 65 | 338 | 1.0 | 6.0 | 0.00 | 0.00 | 0.00 | 65 | 1016.5 |
| 20260510014549 | 65 | 0 | 0.0 | 4.0 | 0.00 | 0.00 | 0.00 | 65 | 1016.6 |
| 20260510014048 | 65 | 0 | 0.0 | 4.0 | 0.00 | 0.00 | 0.00 | 65 | 1016.6 |
| 20260510013547 | 65 | 319 | 1.0 | 4.0 | 0.00 | 0.00 | 0.00 | 64 | 1016.7 |
| 20260510013057 | 65 | 0 | 0.0 | 4.0 | 0.00 | 0.00 | 0.00 | 64 | 1016.8 |
| 20260510012548 | 65 | 291 | 0.0 | 4.0 | 0.00 | 0.00 | 0.00 | 64 | 1016.8 |
| 20260510012046 | 65 | 268 | 1.0 | 4.0 | 0.00 | 0.00 | 0.00 | 64 | 1016.8 |
| 20260510011558 | 66 | 319 | 0.0 | 4.0 | 0.00 | 0.00 | 0.00 | 64 | 1016.9 |
| 20260510011046 | 66 | 0 | 0.0 | 5.0 | 0.00 | 0.00 | 0.00 | 64 | 1016.9 |
| 20260510010546 | 66 | 296 | 0.0 | 6.0 | 0.00 | 0.00 | 0.00 | 64 | 1017.0 |
| 20260510010051 | 66 | 257 | 2.0 | 6.0 | 0.00 | 0.00 | 0.00 | 63 | 1017.0 |
| 20260510005546 | 66 | 0 | 0.0 | 5.0 | 0.00 | 0.00 | 0.00 | 62 | 1017.1 |
| 20260510005047 | 66 | 273 | 1.0 | 8.0 | 0.00 | 0.00 | 0.00 | 62 | 1017.1 |
| 20260510004553 | 67 | 0 | 1.0 | 8.0 | 0.00 | 0.00 | 0.00 | 61 | 1017.0 |
| 20260510004047 | 67 | 225 | 0.0 | 7.0 | 0.00 | 0.00 | 0.00 | 62 | 1017.1 |
| 20260510003547 | 67 | 310 | 2.0 | 7.0 | 0.00 | 0.00 | 0.00 | 62 | 1017.2 |
| 20260510003054 | 67 | 317 | 0.0 | 5.0 | 0.00 | 0.00 | 0.00 | 61 | 1017.2 |
| 20260510002546 | 67 | 319 | 1.0 | 5.0 | 0.00 | 0.00 | 0.00 | 62 | 1017.3 |
| 20260510002048 | 67 | 0 | 1.0 | 5.0 | 0.00 | 0.00 | 0.00 | 63 | 1017.3 |
| 20260510001553 | 67 | 0 | 1.0 | 7.0 | 0.00 | 0.00 | 0.00 | 62 | 1017.3 |
| 20260510001045 | 67 | 309 | 2.0 | 7.0 | 0.00 | 0.00 | 0.00 | 61 | 1017.3 |
| 20260510000547 | 68 | 0 | 2.0 | 7.0 | 0.00 | 0.00 | 0.00 | 62 | 1017.4 |
| 20260510000057 | 67 | 0 | 2.0 | 7.0 | 0.00 | 0.00 | 0.00 | 63 | 1017.5 |
| 20260509235547 | 67 | 259 | 2.0 | 7.0 | 0.00 | 0.00 | 0.00 | 63 | 1017.6 |
| 20260509235046 | 67 | 336 | 1.0 | 7.0 | 0.00 | 0.00 | 0.00 | 63 | 1017.7 |
| 20260509234550 | 67 | 22 | 2.0 | 7.0 | 0.00 | 0.00 | 0.00 | 63 | 1017.8 |
| 20260509234046 | 67 | 306 | 2.0 | 7.0 | 0.00 | 0.00 | 0.00 | 62 | 1017.7 |
| 20260509233545 | 66 | 0 | 2.0 | 8.0 | 0.00 | 0.00 | 0.00 | 64 | 1017.7 |
| 20260509233058 | 66 | 327 | 1.0 | 8.0 | 0.00 | 0.00 | 0.00 | 65 | 1017.7 |
| 20260509232548 | 66 | 327 | 2.0 | 8.0 | 0.00 | 0.00 | 0.00 | 64 | 1017.8 |
| 20260509232047 | 66 | 0 | 2.0 | 6.0 | 0.00 | 0.00 | 0.00 | 65 | 1018.0 |
| 20260509231557 | 66 | 242 | 1.0 | 8.0 | 0.00 | 0.00 | 0.00 | 64 | 1018.0 |
| 20260509231046 | 66 | 322 | 2.0 | 8.0 | 0.00 | 0.00 | 0.00 | 65 | 1018.1 |
| 20260509230545 | 66 | 298 | 3.0 | 9.0 | 0.00 | 0.00 | 0.00 | 64 | 1018.1 |
| 20260509230056 | 66 | 74 | 3.0 | 9.0 | 0.00 | 0.00 | 0.00 | 65 | 1018.2 |
| 20260509225547 | 66 | 324 | 2.0 | 11.0 | 0.00 | 0.00 | 0.00 | 63 | 1018.5 |
| 20260509225046 | 67 | 302 | 1.0 | 11.0 | 0.00 | 0.00 | 0.00 | 60 | 1018.4 |
| 20260509224550 | 66 | 307 | 3.0 | 10.0 | 0.00 | 0.00 | 0.00 | 64 | 1018.6 |
| 20260509224048 | 67 | 217 | 2.0 | 8.0 | 0.00 | 0.00 | 0.00 | 64 | 1018.6 |
| 20260509223549 | 66 | 325 | 3.0 | 8.0 | 0.00 | 0.00 | 0.00 | 64 | 1018.6 |
| 20260509223052 | 66 | 0 | 4.0 | 11.0 | 0.00 | 0.00 | 0.00 | 63 | 1018.6 |
| 20260509222546 | 66 | 329 | 4.0 | 11.0 | 0.00 | 0.00 | 0.00 | 64 | 1018.6 |
| 20260509222046 | 66 | 293 | 2.0 | 9.0 | 0.00 | 0.00 | 0.00 | 64 | 1018.7 |
| 20260509221555 | 67 | 321 | 1.0 | 8.0 | 0.00 | 0.00 | 0.00 | 63 | 1018.7 |
| 20260509221145 | 67 | 288 | 1.0 | 9.0 | 0.00 | 0.00 | 0.00 | 62 | 1018.7 |
| 20260509220546 | 67 | 329 | 1.0 | 9.0 | 0.00 | 0.00 | 0.00 | 63 | 1018.7 |
| 20260509220051 | 66 | 315 | 4.0 | 10.0 | 0.00 | 0.00 | 0.00 | 63 | 1018.8 |
| 20260509215547 | 66 | 330 | 2.0 | 11.0 | 0.00 | 0.00 | 0.00 | 63 | 1018.9 |
| 20260509215047 | 66 | 42 | 5.0 | 11.0 | 0.00 | 0.00 | 0.00 | 64 | 1018.8 |
| 20260509214610 | 66 | 251 | 4.0 | 12.0 | 0.00 | 0.00 | 0.00 | 64 | 1018.9 |